[[{"header":{"parameterUnit":"m.s-1","parameterCategory":1,"la1":30.2991,"la2":30.254,"lo1":-89.0895,"lo2":-89.0444,"dy":0.0017,"dx":0.0017,"nx":28,"ny":28,"refTime":"2025-06-17T09:00:00:Z","depth":0,"parameterNumber":2,"parameterNumberName":"U-component_of_WINDS"},"data":[0,0,0,0,0,0,0,0,0,0,0,0,0,0,0,0,0,0,0,0,0,0,0,0,0,0,0,0,0,0,0,0,0,0,0,0,0,0,0,0,0,0,0,0,0,0,0,0,0,0,0,0,0,0,0,0,0,0,0.5211,0.5211,0,0.5218,0.5218,0.5218,0.5225,0.5225,0.5225,0.5225,0.5232,0.5232,0.5232,0,0,0,0,0,0,0,0,0,0,0,0,0,0.5203,0.5203,0.5211,0.5211,0.5211,0.5218,0.5218,0.5218,0.5225,0.5225,0.5225,0.5225,0.5232,0.5232,0.5232,0,0,0,0,0,0,0,0,0,0,0,0,0,0.5208,0.5203,0.5211,0.5215,0.5216,0.5218,0.5218,0.5218,0.5225,0.5225,0.5225,0.5225,0.5232,0.5232,0.5232,0.523,0,0,0.5232,0.5232,0,0,0,0,0,0,0,0,0.5207,0.5208,0.5215,0.5215,0.5216,0.5221,0.5218,0.5222,0.5225,0.5221,0.5225,0.5225,0.5228,0.5228,0.5229,0.5231,0.5231,0.5232,0.5233,0.5233,0.5233,0,0,0,0,0,0,0,0.5207,0.5208,0.5214,0.5215,0.5215,0.5217,0.5217,0.5219,0.5224,0.5222,0.5222,0.5223,0.5228,0.5229,0.523,0.5231,0.5232,0.5233,0.5233,0.5233,0.523,0.523,0,0,0,0,0,0,0.5206,0.5207,0.5214,0.5214,0.5212,0.5217,0.5218,0.5219,0.5224,0.5225,0.5223,0.5223,0.5229,0.5229,0.523,0.5228,0.5233,0.5233,0.5233,0.523,0.523,0.523,0,0,0,0,0,0,0.5206,0.5207,0.5213,0.5211,0.5212,0.5217,0.5218,0.5219,0.522,0.5225,0.5226,0.5223,0.5229,0.523,0.523,0.5228,0.5233,0.5233,0.523,0.523,0.523,0.5223,0,0,0,0,0,0,0.5206,0.5207,0.5206,0.5211,0.5212,0.5214,0.5218,0.5219,0.522,0.5221,0.5225,0.5226,0.5229,0.523,0.523,0.5228,0.5233,0.5231,0.523,0.523,0.5224,0.5223,0.5222,0,0,0,0,0,0.5205,0.5205,0.5206,0.5207,0.5212,0.5214,0.5214,0.5218,0.522,0.522,0.5222,0.5226,0.5228,0.523,0.523,0.5228,0.5231,0.523,0.523,0.5224,0.5223,0.5222,0,0,0,0,0,0,0.52,0.5205,0.5207,0.5208,0.521,0.5215,0.5214,0.5217,0.5219,0.5219,0.5224,0.5225,0.5224,0.5226,0.5228,0.5226,0.523,0.5229,0.5225,0.5224,0.5223,0.5223,0.5233,0,0,0,0,0,0.5199,0.52,0.5205,0.5205,0.5206,0.521,0.5211,0.5213,0.5216,0.5217,0.522,0.5222,0.5223,0.5224,0.5225,0.5224,0.5225,0.5223,0.5222,0.5221,0.5221,0.522,0.5219,0.5229,0.5229,0.5229,0,0,0.5197,0.52,0.52,0.5204,0.5206,0.5206,0.5211,0.5211,0.5212,0.5217,0.5217,0.5219,0.5222,0.5221,0.5221,0.5223,0.5218,0.5221,0.522,0.522,0.5219,0.5218,0.5217,0.5228,0.5228,0.5228,0,0,0.5193,0.5196,0.5196,0.5197,0.52,0.5203,0.5203,0.5206,0.5208,0.5208,0.5212,0.5212,0.5214,0.5215,0.5216,0.5211,0.5214,0.5212,0.5208,0.5206,0.5205,0.5205,0.5202,0.5202,0.5211,0.5211,0.5211,0,0.519,0.5192,0.5195,0.5196,0.5196,0.5201,0.52,0.5202,0.5205,0.5205,0.5207,0.5209,0.5211,0.521,0.5209,0.521,0.5209,0.5211,0.5205,0.5205,0.5204,0.5202,0.5201,0.5211,0.5211,0.5211,0.5211,0,0.5187,0.5188,0.5187,0.519,0.5191,0.5191,0.5194,0.5194,0.5196,0.5199,0.5198,0.5201,0.5202,0.5202,0.5204,0.5201,0.5202,0.5204,0.5208,0.5203,0.5201,0.52,0.521,0.5211,0.5211,0.5211,0,0,0.5182,0.5185,0.5185,0.5186,0.5188,0.5189,0.5188,0.519,0.5189,0.5191,0.519,0.5191,0.5193,0.5194,0.5197,0.5195,0.519,0.5198,0.5198,0.5196,0.5186,0.5184,0.5183,0.5192,0.5192,0.5192,0.5186,0,0.5178,0.5178,0.5181,0.518,0.518,0.5183,0.5182,0.5184,0.5185,0.5185,0.5187,0.5187,0.519,0.5191,0.5189,0.5191,0.5188,0.5192,0.5191,0.5191,0.519,0.5182,0.518,0.5175,0.5185,0.5185,0.5185,0,0.5175,0.5175,0.5174,0.5176,0.5176,0.5176,0.5176,0.5177,0.5178,0.5179,0.5179,0.5181,0.518,0.5183,0.5182,0.5184,0.5184,0.5184,0.5184,0.5184,0.5188,0.5182,0.5173,0.5172,0.5184,0.5184,0.5184,0,0.517,0.5171,0.517,0.5171,0.5173,0.5172,0.5173,0.5174,0.5174,0.5174,0.5174,0.5175,0.5175,0.5175,0.5177,0.5179,0.5174,0.5178,0.5175,0.5175,0.5174,0.5174,0.5165,0.5174,0.5174,0.5174,0.5174,0,0.5166,0.5165,0.5168,0.5167,0.5166,0.5168,0.5167,0.5168,0.5169,0.5168,0.5171,0.517,0.5173,0.5172,0.5173,0.5171,0.5171,0.5172,0.5172,0.5171,0.5171,0.5171,0.5172,0.5174,0.5174,0.5174,0.5174,0,0.5161,0.5163,0.5162,0.5164,0.5164,0.5163,0.5164,0.5163,0.5164,0.5163,0.5163,0.5165,0.5164,0.5166,0.5165,0.5166,0.5163,0.5164,0.5163,0.5163,0.516,0.516,0.515,0.5149,0.5159,0.5159,0.5159,0,0.5159,0.5158,0.5159,0.5158,0.5159,0.5159,0.5158,0.516,0.516,0.516,0.5159,0.5158,0.5158,0.5156,0.5157,0.5156,0.5157,0.5154,0.5157,0.5156,0.5157,0.5157,0.5156,0.5153,0.5153,0.5153,0.5153,0,0.5154,0.5154,0.5154,0.5154,0.5153,0.5153,0.5153,0.5153,0.5155,0.5154,0.5153,0.5152,0.5151,0.515,0.5149,0.515,0.5151,0.5152,0.5151,0.5151,0.515,0.515,0.5161,0.5152,0.5152,0.5152,0.5152,0.5153,0.515,0.5149,0.5149,0.5148,0.5148,0.5148,0.5147,0.5147,0.5147,0.5146,0.5147,0.5145,0.5145,0.5144,0.5144,0.5142,0.5144,0.5143,0.5143,0.5142,0.5142,0.515,0.5142,0.5142,0.5142,0.5142,0.5142,0,0.5145,0.5145,0.5144,0.5143,0.5142,0.5144,0.5144,0.5143,0.5141,0.5141,0.514,0.5138,0.5137,0.5137,0.5136,0.5134,0.5135,0.5134,0.5134,0.5134,0.5141,0.5141,0.5133,0.5133,0.5133,0.5133,0.5133,0.5133,0.5142,0.514,0.514,0.5138,0.5138,0.5136,0.5136,0.5135,0.5135,0.5133,0.5131,0.5131,0.5131,0.5129,0.5128,0.5128,0.5127,0.5125,0.5126,0.5132,0.5133,0.5134,0.5135,0.5125,0.5125,0.5119,0.5119,0.5119]},{"header":{"parameterUnit":"m.s-1","parameterCategory":1,"la1":30.2991,"la2":30.254,"lo1":-89.0895,"lo2":-89.0444,"dy":0.0017,"dx":0.0017,"nx":28,"ny":28,"refTime":"2025-06-17T09:00:00:Z","depth":0,"parameterNumber":3,"parameterNumberName":"V-component_of_WINDS"},"data":[0,0,0,0,0,0,0,0,0,0,0,0,0,0,0,0,0,0,0,0,0,0,0,0,0,0,0,0,0,0,0,0,0,0,0,0,0,0,0,0,0,0,0,0,0,0,0,0,0,0,0,0,0,0,0,0,0,0,4.1996,4.1997,0,4.2036,4.2037,4.2037,4.2037,4.2037,4.2036,4.2036,4.2073,4.2074,4.2076,0,0,0,0,0,0,0,0,0,0,0,0,0,4.1917,4.1918,4.1996,4.1997,4.1997,4.2036,4.2037,4.2037,4.2037,4.2037,4.2036,4.2035,4.2072,4.2074,4.2076,0,0,0,0,0,0,0,0,0,0,0,0,0,4.1954,4.1919,4.1996,4.2002,4.2003,4.2036,4.2037,4.2037,4.2037,4.2037,4.2036,4.2035,4.2072,4.2074,4.2076,4.2105,0,0,4.2083,4.2084,0,0,0,0,0,0,0,0,4.1951,4.1956,4.2001,4.2002,4.2003,4.2031,4.2022,4.206,4.2038,4.2024,4.2036,4.2035,4.2059,4.2062,4.2072,4.2107,4.2108,4.2083,4.2084,4.2085,4.2086,0,0,0,0,0,0,0,4.1949,4.1955,4.2012,4.2001,4.2003,4.2002,4.2006,4.203,4.2045,4.2025,4.2025,4.203,4.206,4.2069,4.2072,4.2109,4.2083,4.2085,4.2086,4.2087,4.2171,4.2172,0,0,0,0,0,0,4.1946,4.1953,4.2011,4.2013,4.1975,4.2004,4.2009,4.2023,4.2045,4.2048,4.2031,4.203,4.2066,4.207,4.2074,4.211,4.2085,4.2087,4.2089,4.217,4.2171,4.2172,0,0,0,0,0,0,4.1944,4.1951,4.2009,4.1983,4.199,4.2006,4.2022,4.2024,4.2034,4.205,4.2052,4.2038,4.2066,4.2071,4.2098,4.2111,4.2088,4.209,4.2169,4.217,4.2171,4.2182,0,0,0,0,0,0,4.1942,4.195,4.1962,4.1983,4.1992,4.2033,4.2022,4.2025,4.2038,4.2037,4.2057,4.2059,4.2065,4.2094,4.21,4.2114,4.2092,4.2168,4.2169,4.2171,4.218,4.2183,4.2186,0,0,0,0,0,4.1939,4.1962,4.1962,4.1969,4.2007,4.2034,4.2039,4.2046,4.2039,4.205,4.2061,4.2059,4.2109,4.2097,4.2103,4.2118,4.2167,4.2169,4.2171,4.2179,4.2183,4.2186,0,0,0,0,0,0,4.194,4.1965,4.1966,4.1997,4.2014,4.2034,4.2049,4.205,4.2068,4.2066,4.2074,4.2078,4.2105,4.2114,4.2101,4.2148,4.2137,4.214,4.2141,4.2145,4.2147,4.2144,4.2094,0,0,0,0,0,4.1944,4.1965,4.1985,4.2011,4.2019,4.2033,4.2045,4.2049,4.2066,4.2073,4.2085,4.2101,4.2121,4.2133,4.2151,4.2182,4.2186,4.2195,4.2198,4.22,4.2203,4.222,4.2224,4.2179,4.2179,4.2179,0,0,4.1952,4.1969,4.1981,4.2011,4.2025,4.2046,4.2038,4.2061,4.2076,4.2076,4.2103,4.2113,4.2131,4.216,4.2173,4.2168,4.2216,4.2202,4.2204,4.2206,4.2223,4.2227,4.2231,4.218,4.218,4.218,0,0,4.1978,4.1992,4.2016,4.203,4.2052,4.2061,4.2066,4.2087,4.2094,4.2122,4.2122,4.214,4.2173,4.2187,4.2198,4.223,4.2229,4.2236,4.2251,4.2268,4.2271,4.2274,4.2287,4.2291,4.2239,4.2239,4.2239,0,4.1985,4.2018,4.2027,4.2051,4.2064,4.2067,4.209,4.2103,4.2129,4.2138,4.2132,4.2175,4.2187,4.2219,4.2228,4.2236,4.2243,4.2234,4.227,4.2273,4.2277,4.2288,4.2293,4.224,4.2239,4.2239,4.2239,0,4.2026,4.2049,4.2065,4.2092,4.2107,4.213,4.2142,4.2157,4.216,4.217,4.2198,4.2213,4.2235,4.2243,4.2246,4.2277,4.2273,4.2269,4.2258,4.2282,4.2293,4.2297,4.2241,4.224,4.224,4.224,0,0,4.2053,4.2086,4.2092,4.2105,4.2129,4.2146,4.217,4.2193,4.2205,4.2223,4.2243,4.2271,4.2268,4.2281,4.2285,4.23,4.2326,4.2294,4.2294,4.23,4.2362,4.2365,4.237,4.2326,4.2326,4.2327,4.236,0,4.2082,4.2125,4.2134,4.2171,4.2192,4.2196,4.2216,4.2233,4.2243,4.2262,4.2272,4.2292,4.2286,4.2294,4.2309,4.232,4.2339,4.2317,4.2344,4.2344,4.2339,4.2376,4.2379,4.241,4.2365,4.2365,4.2366,0,4.2121,4.2142,4.2181,4.2204,4.2214,4.2232,4.2255,4.2273,4.2292,4.2298,4.2313,4.2317,4.234,4.2329,4.2362,4.2347,4.2359,4.2366,4.2367,4.237,4.2357,4.238,4.2419,4.2424,4.2373,4.2372,4.2372,0,4.2137,4.2175,4.2204,4.2215,4.2242,4.2255,4.2267,4.2285,4.2299,4.2319,4.2328,4.235,4.2361,4.2378,4.2387,4.2377,4.2419,4.2408,4.2425,4.2425,4.2433,4.2433,4.2476,4.244,4.244,4.244,4.244,0,4.2169,4.2193,4.2212,4.223,4.2257,4.2268,4.2294,4.2305,4.2322,4.2342,4.2345,4.2363,4.2374,4.2393,4.24,4.2427,4.2432,4.2437,4.2439,4.2437,4.2437,4.2445,4.2443,4.2441,4.2441,4.2441,4.244,0,4.2191,4.2205,4.2237,4.2261,4.2268,4.2287,4.2307,4.2324,4.2335,4.2359,4.2366,4.2381,4.2405,4.2416,4.2443,4.2448,4.2479,4.2479,4.2473,4.2474,4.249,4.2489,4.254,4.2547,4.2506,4.2507,4.2507,0,4.221,4.2229,4.2256,4.2271,4.2284,4.2306,4.2321,4.2332,4.2347,4.2372,4.2386,4.241,4.2429,4.2466,4.248,4.2502,4.2502,4.2519,4.2505,4.2504,4.2503,4.2502,4.2504,4.2521,4.2521,4.2522,4.2522,0,4.2243,4.225,4.2272,4.2297,4.2315,4.2335,4.2354,4.2365,4.238,4.2396,4.2421,4.2437,4.2467,4.249,4.2514,4.2525,4.2526,4.2526,4.2531,4.253,4.2526,4.2529,4.248,4.2525,4.2525,4.2524,4.2524,4.2524,4.2265,4.2283,4.2305,4.233,4.2346,4.2365,4.2383,4.2396,4.2418,4.2444,4.2449,4.2476,4.2495,4.2526,4.2539,4.2559,4.2555,4.2562,4.2564,4.2566,4.2567,4.2523,4.2563,4.2563,4.2563,4.2563,4.2563,0,4.2299,4.2314,4.2337,4.2365,4.2385,4.2386,4.2408,4.2424,4.2448,4.2466,4.2486,4.2515,4.2539,4.2555,4.2578,4.2591,4.2593,4.2597,4.2596,4.2599,4.2569,4.2563,4.2596,4.2596,4.2596,4.2596,4.2596,4.2596,4.2319,4.235,4.2359,4.2397,4.2412,4.2439,4.2452,4.2468,4.2484,4.2517,4.2537,4.2548,4.2565,4.259,4.2612,4.2616,4.2624,4.2629,4.2633,4.2605,4.2601,4.2598,4.2592,4.2631,4.2631,4.2662,4.2662,4.2662]}]]